sat.trackr.live / text

‹ back to catalog

STARLINK-33715

NORAD 63441 · 2025-069J

PAYLOAD ACTIVE UNKNOWN

§ Identity

Operator
Country
US
Launch date
2025-04-04
Launch site
AFWTR
Launch vehicle
Mass (kg)
RCS (m²)

Purposes: comms

External: N2YO · Heavens-Above · Gunter

§ Orbital elements

Epoch: 2026-09-20T10:13:24.418848Z

Period
93.85 min
Inclination
53.1592°
Eccentricity
0.0001257
Mean motion
15.34388108 rev/d
Perigee alt
461.9 km
Apogee alt
463.6 km
Semi-major
6,840.9 km
B*
5.9778e-5
RAAN
308.4119°
Arg perigee
70.7390°
Mean anomaly
289.3749°
Rev number
8,335

§ Raw data

STARLINK-337151 63441U 25069J   26263.42597707  .00001643  00000+0  59778-4 0  99932 63441  53.1592 308.4119 0001257  70.7390 289.3749 15.34388108 83354

JSON: /api/v1/satellites/63441 · /tle

For live sub-satellite position, see the globe view (requires WebGL).

§ Visibility from observer

Set your observer location to see the next 7 days of passes ≥ 10°. The values pass through the URL so the page stays shareable.

No JS? Fill the form by hand. The geolocation button needs JavaScript.